Location: Dana
(41.8364°N, 106.7042°W)
Time: 03:50:05
(UTC+00:00)

Vanguard 1 Rocket - Pass Details

Date: 12 May 2026
Orbit: 656 x 4211 km, 34.3° (Epoch: 9 June)

Event Time Altitude Azimuth Distance (km) Brightness Sun altitude
Rises 05:06:31 0° 282° (WNW) 6,969 12.5 -24.2°
Reaches altitude 10° 05:11:05 10° 275° (W) 6,347 12.1 -24.7°
Maximum altitude 05:30:33 39° 216° (SW) 5,259 10.9 -26.3°
Enters shadow 05:41:08 30° 179° (S) 5,820 10.9 -27.1°
